TimePST,TemperatureF,Dew PointF,Humidity,Sea Level PressureIn,VisibilityMPH,Wind Direction,Wind SpeedMPH,Gust SpeedMPH,PrecipitationIn,Events,Conditions,WindDirDegrees,DateUTC
12:55 AM,37.9,36.0,93,30.29,10.0,East,4.6,-,N/A,,Clear,100,2013-01-30 08:55:00
1:55 AM,37.0,35.1,93,30.29,10.0,SE,3.5,-,N/A,,Clear,140,2013-01-30 09:55:00
2:55 AM,37.0,36.0,96,30.30,10.0,SE,3.5,-,N/A,,Clear,140,2013-01-30 10:55:00
3:55 AM,37.0,36.0,96,30.29,10.0,SE,4.6,-,N/A,,Clear,130,2013-01-30 11:55:00
4:55 AM,37.0,35.1,93,30.30,8.0,ESE,3.5,-,N/A,,Clear,120,2013-01-30 12:55:00
5:55 AM,36.0,35.1,97,30.30,10.0,SE,3.5,-,N/A,,Clear,140,2013-01-30 13:55:00
6:55 AM,35.1,34.0,96,30.32,8.0,SE,4.6,-,N/A,,Clear,140,2013-01-30 14:55:00
7:55 AM,37.0,36.0,96,30.33,6.0,SE,4.6,-,N/A,,Clear,130,2013-01-30 15:55:00
8:55 AM,44.1,39.0,82,30.35,10.0,SE,6.9,-,N/A,,Clear,140,2013-01-30 16:55:00
9:55 AM,50.0,41.0,71,30.35,10.0,SSE,5.8,-,N/A,,Clear,160,2013-01-30 17:55:00
10:55 AM,53.1,41.0,64,30.35,10.0,Variable,3.5,-,N/A,,Clear,0,2013-01-30 18:55:00
11:55 AM,57.2,41.0,55,30.33,10.0,SSE,5.8,-,N/A,,Clear,160,2013-01-30 19:55:00
12:55 PM,59.0,41.0,51,30.30,10.0,Variable,4.6,-,N/A,,Clear,0,2013-01-30 20:55:00
1:55 PM,62.1,42.1,48,30.28,10.0,SW,4.6,-,N/A,,Clear,220,2013-01-30 21:55:00
2:55 PM,62.1,42.1,48,30.27,10.0,Variable,3.5,-,N/A,,Clear,0,2013-01-30 22:55:00
3:55 PM,62.1,44.1,52,30.27,10.0,Calm,Calm,-,N/A,,Clear,0,2013-01-30 23:55:00
4:55 PM,61.0,44.1,54,30.26,10.0,Calm,Calm,-,N/A,,Clear,0,2013-01-31 00:55:00
5:55 PM,54.0,42.1,64,30.26,10.0,East,5.8,-,N/A,,Clear,90,2013-01-31 01:55:00
6:55 PM,50.0,42.1,74,30.27,10.0,SE,5.8,-,N/A,,Clear,130,2013-01-31 02:55:00
7:55 PM,48.0,42.1,80,30.27,10.0,South,3.5,-,N/A,,Clear,180,2013-01-31 03:55:00
8:55 PM,46.9,41.0,80,30.27,10.0,SE,4.6,-,N/A,,Clear,130,2013-01-31 04:55:00
9:55 PM,46.0,42.1,86,30.27,10.0,SSE,4.6,-,N/A,,Clear,160,2013-01-31 05:55:00
10:55 PM,43.0,39.0,86,30.28,9.0,East,3.5,-,N/A,,Clear,90,2013-01-31 06:55:00
11:55 PM,39.9,37.0,89,30.29,6.0,East,5.8,-,N/A,,Clear,80,2013-01-31 07:55:00